platform_code,time,latitude,longitude,sst,slp,observation_depth
,UTC,degrees_north,degrees_east,Deg C,hPa,
4101696,2020-02-04T20:00:00Z,8.4484,-52.8236,27.5,1013.8,0.0
4101696,2020-02-04T20:59:00Z,8.4388,-52.8192,27.45,1014.1,0.0
4101696,2020-02-04T21:59:00Z,8.43,-52.816,27.43,1014.5,0.0
4101696,2020-02-04T23:00:00Z,8.421,-52.8132,27.43,1014.9,0.0
4101696,2020-02-05T00:00:00Z,8.412,-52.8096,27.42,1015.6,0.0
4101696,2020-02-05T01:00:00Z,8.4026,-52.8048,27.4,1016.3,0.0
4101696,2020-02-05T01:58:00Z,8.3934,-52.7992,27.4,1016.3,0.0
4101696,2020-02-05T03:00:00Z,8.3844,-52.7954,27.4,1016.1,0.0
4101696,2020-02-05T04:00:00Z,8.3742,-52.7904,27.38,1015.7,0.0
4101696,2020-02-05T05:00:00Z,8.364,-52.7852,27.38,1015.0,0.0
4101696,2020-02-05T05:59:00Z,8.3552,-52.7818,27.36,1014.5,0.0
4101696,2020-02-05T07:00:00Z,8.347,-52.7794,27.37,1014.1,0.0
4101696,2020-02-05T07:59:00Z,8.339,-52.7774,27.37,1014.2,0.0
4101696,2020-02-05T09:00:00Z,8.332,-52.7758,27.36,1014.4,0.0
4101696,2020-02-05T10:00:00Z,8.326,-52.7724,27.36,1014.8,0.0
4101696,2020-02-05T11:00:00Z,8.321,-52.7692,27.35,1015.5,0.0
4101696,2020-02-05T12:00:00Z,8.3164,-52.7668,27.36,1016.4,0.0
4101696,2020-02-05T13:00:00Z,8.3126,-52.764,27.37,1016.8,0.0
4101696,2020-02-05T14:00:00Z,8.3086,-52.7604,27.38,1017.1,0.0
4101696,2020-02-05T15:00:00Z,8.3038,-52.7578,27.4,1016.8,0.0
4101696,2020-02-05T15:59:00Z,8.299,-52.7566,27.42,1016.0,0.0
4101696,2020-02-05T17:00:00Z,8.2954,-52.7548,27.44,1015.2,0.0
4101696,2020-02-05T18:00:00Z,8.2922,-52.753,27.45,1014.4,0.0
4101696,2020-02-05T19:00:00Z,8.2896,-52.7512,27.44,1014.0,0.0
4101696,2020-02-05T20:00:00Z,8.2874,-52.747,27.44,1014.1,0.0
4101696,2020-02-05T21:00:00Z,8.2844,-52.7424,27.41,1014.4,0.0
4101696,2020-02-05T21:58:00Z,8.2812,-52.7386,27.39,1015.0,0.0
4101696,2020-02-05T23:00:00Z,8.2788,-52.7344,27.38,1015.3,0.0
4101696,2020-02-05T23:59:00Z,8.278,-52.7298,27.38,1016.0,0.0
4101696,2020-02-06T01:00:00Z,8.2782,-52.7252,27.37,1016.4,0.0
4101696,2020-02-06T02:00:00Z,8.2774,-52.7214,27.37,1016.4,0.0
4101696,2020-02-06T03:00:00Z,8.277,-52.7174,27.36,1016.2,0.0
4101696,2020-02-06T04:00:00Z,8.2766,-52.7122,27.35,1015.6,0.0
4101696,2020-02-06T05:00:00Z,8.2752,-52.7064,27.34,1014.8,0.0
4101696,2020-02-06T05:58:00Z,8.2746,-52.7002,27.31,1014.1,0.0
4101696,2020-02-06T07:00:00Z,8.2736,-52.6944,27.31,1013.8,0.0
4101696,2020-02-06T08:00:00Z,8.2724,-52.6874,27.3,1013.8,0.0
4101696,2020-02-06T09:00:00Z,8.2706,-52.68,27.29,1014.0,0.0
4101696,2020-02-06T09:59:00Z,8.2682,-52.6732,27.27,1014.3,0.0
4101696,2020-02-06T11:00:00Z,8.2672,-52.6688,27.26,1015.0,0.0
4101696,2020-02-06T12:00:00Z,8.2666,-52.6636,27.28,1015.8,0.0
4101696,2020-02-06T12:59:00Z,8.266,-52.6566,27.29,1016.4,0.0
4101696,2020-02-06T14:00:00Z,8.2644,-52.6494,27.3,1016.3,0.0
4101696,2020-02-06T14:59:00Z,8.2622,-52.642,27.31,1015.5,0.0
4101696,2020-02-06T16:00:00Z,8.2598,-52.6342,27.33,1014.8,0.0
4101696,2020-02-06T17:00:00Z,8.2574,-52.6276,27.34,1014.0,0.0
4101696,2020-02-06T18:00:00Z,8.257,-52.62,27.35,1013.4,0.0
4101696,2020-02-06T19:00:00Z,8.2578,-52.613,27.35,1013.2,0.0
4101696,2020-02-06T19:58:00Z,8.2596,-52.6054,27.34,1013.2,0.0
4101696,2020-02-06T21:00:00Z,8.2608,-52.598,27.34,1013.6,0.0
4101696,2020-02-06T22:00:00Z,8.2618,-52.5908,27.32,1014.2,0.0
4101696,2020-02-06T23:00:00Z,8.261,-52.5832,27.31,1014.8,0.0
4101696,2020-02-07T00:00:00Z,8.2602,-52.5746,27.3,1015.2,0.0
4101696,2020-02-07T01:00:00Z,8.258,-52.5662,27.29,1015.5,0.0
4101696,2020-02-07T01:59:00Z,8.2554,-52.558,27.27,1015.4,0.0
4101696,2020-02-07T03:00:00Z,8.252,-52.5498,27.25,1015.1,0.0
4101696,2020-02-07T03:59:00Z,8.2472,-52.5416,27.25,1014.6,0.0
4101696,2020-02-07T05:00:00Z,8.2418,-52.534,27.23,1013.9,0.0
4101696,2020-02-07T06:00:00Z,8.2368,-52.5258,27.23,1013.2,0.0
4101696,2020-02-07T07:00:00Z,8.2324,-52.5186,27.22,1013.0,0.0
4101696,2020-02-07T07:58:00Z,8.229,-52.5128,27.19,1013.2,0.0
4101696,2020-02-07T09:00:00Z,8.2262,-52.507,27.18,1013.4,0.0
4101696,2020-02-07T10:00:00Z,8.2224,-52.5004,27.16,1013.9,0.0
4101696,2020-02-07T11:00:00Z,8.2182,-52.4932,27.17,1014.5,0.0
4101696,2020-02-07T11:59:00Z,8.2138,-52.4872,27.18,1015.3,0.0
4101696,2020-02-07T13:00:00Z,8.209,-52.4812,27.19,1015.8,0.0
4101696,2020-02-07T14:00:00Z,8.2042,-52.475,27.21,1015.9,0.0
4101696,2020-02-07T15:00:00Z,8.1988,-52.469,27.21,1015.2,0.0
4101696,2020-02-07T15:59:00Z,8.194,-52.4628,27.23,1014.5,0.0
4101696,2020-02-07T17:00:00Z,8.1912,-52.4572,27.26,1013.5,0.0
4101696,2020-02-07T18:00:00Z,8.1886,-52.4512,27.26,1012.9,0.0
4101696,2020-02-07T19:00:00Z,8.1882,-52.4456,27.27,1012.6,0.0
4101696,2020-02-07T20:00:00Z,8.1884,-52.44,27.26,1012.8,0.0
4101696,2020-02-07T20:59:00Z,8.1884,-52.436,27.25,1012.9,0.0
4101696,2020-02-07T21:59:00Z,8.1894,-52.4308,27.22,1013.0,0.0
4101696,2020-02-08T00:00:00Z,8.1902,-52.417,27.19,1014.4,0.0
4101696,2020-02-08T01:00:00Z,8.1898,-52.4086,27.2,1014.8,0.0
4101696,2020-02-08T01:59:00Z,8.1894,-52.3998,27.2,1015.0,0.0
4101696,2020-02-08T03:00:00Z,8.1886,-52.3906,27.19,1014.8,0.0
4101696,2020-02-08T04:00:00Z,8.188,-52.3818,27.17,1014.3,0.0
4101696,2020-02-08T05:00:00Z,8.188,-52.3732,27.16,1013.7,0.0
4101696,2020-02-08T06:00:00Z,8.1882,-52.364,27.16,1012.8,0.0
4101696,2020-02-08T07:00:00Z,8.1884,-52.3552,27.15,1012.7,0.0
4101696,2020-02-08T08:00:00Z,8.1882,-52.3454,27.14,1012.5,0.0
4101696,2020-02-08T09:00:00Z,8.1894,-52.3368,27.13,1012.7,0.0
4101696,2020-02-08T09:59:00Z,8.1906,-52.3282,27.12,1013.2,0.0
4101696,2020-02-08T11:00:00Z,8.192,-52.3194,27.11,1014.0,0.0
4101696,2020-02-08T11:59:00Z,8.192,-52.3098,27.12,1014.7,0.0
4101696,2020-02-08T13:00:00Z,8.1904,-52.2998,27.14,1015.2,0.0
4101696,2020-02-08T13:59:00Z,8.1888,-52.289,27.15,1015.3,0.0
4101696,2020-02-08T15:00:00Z,8.1866,-52.2794,27.18,1014.7,0.0
4101696,2020-02-08T15:59:00Z,8.1836,-52.2688,27.19,1014.3,0.0
4101696,2020-02-08T17:00:00Z,8.1798,-52.2582,27.21,1013.7,0.0
4101696,2020-02-08T17:58:00Z,8.1768,-52.248,27.22,1012.8,0.0
4101696,2020-02-08T19:00:00Z,8.1756,-52.2386,27.22,1012.5,0.0
4101696,2020-02-08T20:00:00Z,8.1758,-52.2294,27.22,1012.6,0.0
4101696,2020-02-08T21:00:00Z,8.1772,-52.2202,27.2,1013.0,0.0
4101696,2020-02-08T21:59:00Z,8.1802,-52.2114,27.18,1013.8,0.0
4101696,2020-02-08T23:00:00Z,8.1828,-52.2028,27.18,1014.7,0.0
4101696,2020-02-08T23:59:00Z,8.1852,-52.194,27.16,1015.4,0.0
4101696,2020-02-09T01:00:00Z,8.187,-52.1856,27.16,1015.7,0.0
4101696,2020-02-09T01:59:00Z,8.1878,-52.1754,27.14,1015.7,0.0
4101696,2020-02-09T03:00:00Z,8.1872,-52.1654,27.14,1015.3,0.0
4101696,2020-02-09T04:00:00Z,8.1864,-52.1562,27.13,1014.8,0.0
4101696,2020-02-09T05:00:00Z,8.1854,-52.1466,27.12,1014.4,0.0
4101696,2020-02-09T05:59:00Z,8.1848,-52.1364,27.12,1013.7,0.0
4101696,2020-02-09T07:00:00Z,8.1862,-52.1272,27.1,1013.4,0.0
4101696,2020-02-09T08:00:00Z,8.1886,-52.1186,27.07,1013.7,0.0
4101696,2020-02-09T09:00:00Z,8.1918,-52.1096,27.08,1014.0,0.0
4101696,2020-02-09T10:00:00Z,8.195,-52.1008,27.07,1014.6,0.0
4101696,2020-02-09T11:00:00Z,8.1982,-52.0926,27.05,1015.7,0.0
4101696,2020-02-09T11:58:00Z,8.2012,-52.0846,27.06,1016.7,0.0
4101696,2020-02-09T13:00:00Z,8.2038,-52.0764,27.07,1017.3,0.0
4101696,2020-02-09T14:00:00Z,8.2054,-52.0664,27.07,1017.5,0.0
4101696,2020-02-09T15:00:00Z,8.206,-52.0554,27.09,1017.2,0.0
4101696,2020-02-09T15:57:00Z,8.2044,-52.0444,27.1,1016.5,0.0
4101696,2020-02-09T17:00:00Z,8.2024,-52.0342,27.11,1015.6,0.0
4101696,2020-02-09T18:00:00Z,8.2002,-52.024,27.14,1014.9,0.0
4101696,2020-02-09T19:00:00Z,8.199,-52.0128,27.13,1014.5,0.0
4101696,2020-02-09T19:59:00Z,8.2002,-52.0006,27.12,1014.6,0.0
4101696,2020-02-09T21:00:00Z,8.203,-51.9892,27.11,1014.9,0.0
4101696,2020-02-09T21:58:00Z,8.2058,-51.9772,27.11,1015.2,0.0
4101696,2020-02-09T23:00:00Z,8.2088,-51.9666,27.1,1015.6,0.0
4101696,2020-02-09T23:59:00Z,8.2112,-51.956,27.09,1016.2,0.0
4101696,2020-02-10T01:00:00Z,8.2128,-51.9468,27.08,1016.6,0.0
4101696,2020-02-10T02:00:00Z,8.2142,-51.9386,27.08,1016.6,0.0
4101696,2020-02-10T02:59:00Z,8.2146,-51.9278,27.06,1016.1,0.0
4101696,2020-02-10T04:00:00Z,8.2144,-51.9168,27.06,1015.6,0.0
4101696,2020-02-10T05:00:00Z,8.2138,-51.9046,27.05,1015.2,0.0
4101696,2020-02-10T05:59:00Z,8.2132,-51.8914,27.05,1014.4,0.0
4101696,2020-02-10T07:00:00Z,8.2128,-51.8792,27.04,1014.1,0.0
4101696,2020-02-10T08:00:00Z,8.2142,-51.867,27.05,1014.0,0.0
4101696,2020-02-10T09:00:00Z,8.2176,-51.8556,27.04,1014.3,0.0
4101696,2020-02-10T09:59:00Z,8.2228,-51.8454,27.03,1014.7,0.0
4101696,2020-02-10T11:00:00Z,8.2296,-51.8364,27.03,1015.3,0.0
4101696,2020-02-10T12:00:00Z,8.2364,-51.8272,27.03,1016.2,0.0
4101696,2020-02-10T13:00:00Z,8.2422,-51.8174,27.04,1016.7,0.0
4101696,2020-02-10T13:59:00Z,8.2472,-51.8064,27.05,1016.9,0.0
4101696,2020-02-10T15:00:00Z,8.251,-51.7958,27.08,1016.6,0.0
4101696,2020-02-10T16:00:00Z,8.2536,-51.7844,27.1,1015.8,0.0
4101696,2020-02-10T17:00:00Z,8.255,-51.7728,27.08,1015.0,0.0
4101696,2020-02-10T18:00:00Z,8.2558,-51.7614,27.07,1014.2,0.0
4101696,2020-02-10T19:00:00Z,8.2558,-51.7502,27.08,1013.6,0.0
4101696,2020-02-10T20:00:00Z,8.256,-51.739,27.07,1013.6,0.0
4101696,2020-02-10T21:00:00Z,8.257,-51.73,27.06,1013.7,0.0
4101696,2020-02-10T22:00:00Z,8.2588,-51.7212,27.05,1014.0,0.0
4101696,2020-02-10T23:00:00Z,8.2614,-51.7124,27.04,1014.4,0.0
4101696,2020-02-10T23:59:00Z,8.2648,-51.7038,27.02,1014.8,0.0
4101696,2020-02-11T01:00:00Z,8.2678,-51.6956,27.02,1015.3,0.0
4101696,2020-02-11T02:00:00Z,8.2702,-51.6868,27.01,1015.4,0.0
4101696,2020-02-11T03:00:00Z,8.2728,-51.6776,27.0,1015.4,0.0
4101696,2020-02-11T04:00:00Z,8.2746,-51.668,26.99,1015.0,0.0
4101696,2020-02-11T05:00:00Z,8.2752,-51.6572,26.99,1014.7,0.0
4101696,2020-02-11T05:59:00Z,8.2746,-51.6464,26.99,1014.0,0.0
4101696,2020-02-11T07:00:00Z,8.2742,-51.6366,26.99,1013.6,0.0
4101696,2020-02-11T08:00:00Z,8.2742,-51.627,26.98,1013.4,0.0
4101696,2020-02-11T09:00:00Z,8.274,-51.6168,26.97,1013.6,0.0
4101696,2020-02-11T09:58:00Z,8.2756,-51.6072,26.96,1014.3,0.0
4101696,2020-02-11T11:00:00Z,8.28,-51.5998,26.96,1014.7,0.0
4101696,2020-02-11T12:00:00Z,8.286,-51.5914,26.97,1014.8,0.0
4101696,2020-02-11T13:00:00Z,8.2928,-51.5826,26.98,1016.1,0.0
4101696,2020-02-11T14:00:00Z,8.3,-51.5742,26.99,1016.3,0.0
4101696,2020-02-11T14:59:00Z,8.307,-51.565,27.01,1016.1,0.0
4101696,2020-02-11T16:00:00Z,8.3126,-51.556,27.03,1015.3,0.0
4101696,2020-02-11T17:00:00Z,8.317,-51.5458,27.06,1014.6,0.0
4101696,2020-02-11T17:59:00Z,8.3206,-51.5342,27.07,1013.7,0.0
4101696,2020-02-11T19:00:00Z,8.3238,-51.524,27.07,1012.9,0.0
4101696,2020-02-11T20:00:00Z,8.3258,-51.5132,27.07,1012.7,0.0
4101696,2020-02-11T21:00:00Z,8.327,-51.502,27.05,1012.8,0.0
4101696,2020-02-11T21:59:00Z,8.3294,-51.4908,27.02,1012.9,0.0
4101696,2020-02-11T23:00:00Z,8.3334,-51.48,27.03,1013.6,0.0
4101696,2020-02-11T23:58:00Z,8.3374,-51.469,27.02,1014.2,0.0
4101696,2020-02-12T01:00:00Z,8.3414,-51.4594,27.03,1014.8,0.0
4101696,2020-02-12T01:59:00Z,8.3448,-51.4484,27.01,1014.8,0.0
4101696,2020-02-12T03:00:00Z,8.3478,-51.4376,26.99,1014.7,0.0
4101696,2020-02-12T04:00:00Z,8.3504,-51.4268,27.01,1014.2,0.0
4101696,2020-02-12T05:00:00Z,8.3518,-51.415,26.98,1013.9,0.0
4101696,2020-02-12T05:59:00Z,8.352,-51.4032,26.98,1013.1,0.0
4101696,2020-02-12T07:00:00Z,8.3512,-51.3924,26.98,1012.8,0.0
4101696,2020-02-12T08:00:00Z,8.349,-51.3814,26.98,1012.7,0.0
4101696,2020-02-12T09:00:00Z,8.3442,-51.3696,26.98,1013.0,0.0
4101696,2020-02-12T09:59:00Z,8.3392,-51.3576,26.98,1013.5,0.0
4101696,2020-02-12T11:00:00Z,8.3354,-51.3462,26.98,1014.5,0.0
4101696,2020-02-12T11:59:00Z,8.3332,-51.3346,26.99,1014.7,0.0
4101696,2020-02-12T13:00:00Z,8.3332,-51.3222,27.01,1015.4,0.0
4101696,2020-02-12T13:59:00Z,8.3352,-51.3106,27.01,1015.5,0.0
4101696,2020-02-12T15:00:00Z,8.3366,-51.3,27.01,1014.9,0.0
4101696,2020-02-12T16:00:00Z,8.3378,-51.289,27.03,1014.1,0.0
4101696,2020-02-12T17:00:00Z,8.339,-51.2774,27.06,1013.5,0.0
4101696,2020-02-12T17:59:00Z,8.3402,-51.2662,27.03,1013.0,0.0
4101696,2020-02-12T19:00:00Z,8.34,-51.2552,27.03,1012.3,0.0
4101696,2020-02-12T20:00:00Z,8.3386,-51.2432,27.03,1012.3,0.0
4101696,2020-02-12T21:00:00Z,8.3348,-51.2298,27.02,1012.4,0.0
4101696,2020-02-12T21:59:00Z,8.3292,-51.2158,27.01,1012.7,0.0
4101696,2020-02-12T23:00:00Z,8.3236,-51.2036,26.99,1013.2,0.0
4101696,2020-02-13T00:00:00Z,8.3174,-51.1916,26.99,1013.8,0.0
4101696,2020-02-13T01:00:00Z,8.3132,-51.18,26.99,1014.1,0.0
4101696,2020-02-13T02:00:00Z,8.3116,-51.1678,26.99,1014.1,0.0
4101696,2020-02-13T03:00:00Z,8.3116,-51.1534,26.99,1014.2,0.0
4101696,2020-02-13T03:59:00Z,8.3114,-51.139,26.99,1013.9,0.0
4101696,2020-02-13T04:57:00Z,8.3118,-51.1258,26.98,1013.5,0.0
4101696,2020-02-13T06:00:00Z,8.3118,-51.1124,26.99,1013.0,0.0
4101696,2020-02-13T06:59:00Z,8.3102,-51.097,26.98,1012.4,0.0
4101696,2020-02-13T08:00:00Z,8.3074,-51.0826,26.98,1012.4,0.0
4101696,2020-02-13T09:00:00Z,8.3026,-51.0676,26.98,1012.8,0.0
4101696,2020-02-13T10:00:00Z,8.2958,-51.0528,26.97,1013.2,0.0
4101696,2020-02-13T10:59:00Z,8.287,-51.0378,26.97,1013.6,0.0
4101696,2020-02-13T12:00:00Z,8.2774,-51.025,26.96,1014.4,0.0
4101696,2020-02-13T13:00:00Z,8.269,-51.0124,26.96,1015.0,0.0
4101696,2020-02-13T13:59:00Z,8.2632,-50.9998,26.97,1014.9,0.0
4101696,2020-02-13T15:00:00Z,8.262,-50.987,26.97,1014.3,0.0
4101696,2020-02-13T16:00:00Z,8.2624,-50.9718,26.97,1013.7,0.0
4101696,2020-02-13T17:00:00Z,8.264,-50.9562,27.0,1012.9,0.0
4101696,2020-02-13T17:58:00Z,8.2648,-50.9388,26.99,1012.0,0.0
4101696,2020-02-13T19:00:00Z,8.265,-50.9216,27.0,1011.8,0.0
4101696,2020-02-13T20:00:00Z,8.2634,-50.9044,27.0,1012.1,0.0
4101696,2020-02-13T21:00:00Z,8.2588,-50.8878,26.98,1012.1,0.0
4101696,2020-02-13T21:59:00Z,8.2532,-50.8724,26.98,1012.2,0.0
4101696,2020-02-13T23:00:00Z,8.2452,-50.8588,26.96,1012.7,0.0
4101696,2020-02-14T00:00:00Z,8.235,-50.8454,26.96,1013.3,0.0
4101696,2020-02-14T01:00:00Z,8.2242,-50.833,26.95,1013.5,0.0
4101696,2020-02-14T01:59:00Z,8.2146,-50.821,26.96,1013.8,0.0
4101696,2020-02-14T03:00:00Z,8.2088,-50.808,26.95,1013.8,0.0
4101696,2020-02-14T04:00:00Z,8.206,-50.7936,26.95,1013.4,0.0
4101696,2020-02-14T05:00:00Z,8.2058,-50.7778,26.94,1013.0,0.0
4101696,2020-02-14T06:00:00Z,8.2054,-50.7602,26.95,1012.4,0.0
4101696,2020-02-14T07:00:00Z,8.2042,-50.7426,26.94,1012.4,0.0
4101696,2020-02-14T07:59:00Z,8.2016,-50.7252,26.94,1012.8,0.0
4101696,2020-02-14T09:00:00Z,8.1976,-50.709,26.94,1013.0,0.0
4101696,2020-02-14T09:59:00Z,8.1904,-50.6932,26.94,1013.7,0.0
4101696,2020-02-14T11:00:00Z,8.1812,-50.6786,26.94,1014.2,0.0
4101696,2020-02-14T12:00:00Z,8.1686,-50.6646,26.96,1014.8,0.0
4101696,2020-02-14T13:00:00Z,8.1544,-50.6528,26.97,1015.1,0.0
4101696,2020-02-14T13:59:00Z,8.1406,-50.6418,26.99,1015.0,0.0
4101696,2020-02-14T15:00:00Z,8.1298,-50.6314,27.0,1014.5,0.0
4101696,2020-02-14T16:00:00Z,8.1218,-50.6178,27.03,1014.0,0.0
4101696,2020-02-14T17:00:00Z,8.1172,-50.602,27.05,1013.4,0.0
4101696,2020-02-14T17:59:00Z,8.115,-50.5864,27.06,1012.7,0.0
4101696,2020-02-14T19:00:00Z,8.113,-50.5714,27.05,1012.4,0.0
4101696,2020-02-14T20:00:00Z,8.1096,-50.5564,27.05,1012.5,0.0
4101696,2020-02-14T21:00:00Z,8.105,-50.5396,27.02,1012.8,0.0
4101696,2020-02-14T22:00:00Z,8.0982,-50.524,27.02,1013.3,0.0
4101696,2020-02-15T00:00:00Z,8.0782,-50.4952,26.99,1014.6,0.0
4101696,2020-02-15T00:59:00Z,8.066,-50.4808,26.97,1015.1,0.0
4101696,2020-02-15T02:00:00Z,8.0522,-50.4666,26.98,1015.1,0.0
4101696,2020-02-15T02:59:00Z,8.0398,-50.4534,26.97,1014.5,0.0
4101696,2020-02-15T04:59:00Z,8.0218,-50.4212,26.95,1013.4,0.0
4101696,2020-02-15T06:00:00Z,8.0166,-50.4028,26.94,1012.9,0.0
4101696,2020-02-15T06:59:00Z,8.0134,-50.385,26.94,1012.7,0.0
4101696,2020-02-15T08:00:00Z,8.0094,-50.3668,26.94,1012.7,0.0
4101696,2020-02-15T09:00:00Z,8.005,-50.3462,26.94,1012.9,0.0
4101696,2020-02-15T09:59:00Z,7.9978,-50.3244,26.95,1013.3,0.0
4101696,2020-02-15T11:00:00Z,7.989,-50.3046,26.94,1013.8,0.0
4101696,2020-02-15T12:00:00Z,7.9788,-50.2844,26.94,1014.4,0.0
4101696,2020-02-15T13:00:00Z,7.967,-50.2646,26.95,1014.9,0.0
4101696,2020-02-15T13:59:00Z,7.9526,-50.2454,26.96,1014.6,0.0
4101696,2020-02-15T15:00:00Z,7.9376,-50.2274,26.96,1014.1,0.0
4101696,2020-02-15T15:59:00Z,7.9216,-50.211,26.95,1013.8,0.0
4101696,2020-02-15T17:00:00Z,7.908,-50.195,26.95,1012.8,0.0
4101696,2020-02-15T17:59:00Z,7.8948,-50.1756,26.95,1012.2,0.0
4101696,2020-02-15T19:00:00Z,7.8848,-50.1556,26.95,1011.9,0.0
4101696,2020-02-15T19:59:00Z,7.8756,-50.133,26.96,1012.0,0.0
4101696,2020-02-15T21:00:00Z,7.866,-50.1126,26.94,1012.2,0.0
4101696,2020-02-15T22:00:00Z,7.855,-50.0898,26.94,1012.8,0.0
4101696,2020-02-15T23:00:00Z,7.8446,-50.0688,26.93,1013.4,0.0
4101696,2020-02-15T23:59:00Z,7.833,-50.0486,26.94,1013.8,0.0
4101696,2020-02-16T01:00:00Z,7.821,-50.0278,26.94,1013.9,0.0
4101696,2020-02-16T01:59:00Z,7.8088,-50.0088,26.93,1014.0,0.0
4101696,2020-02-16T03:00:00Z,7.7948,-49.9926,26.92,1013.4,0.0
4101696,2020-02-16T03:57:00Z,7.7768,-49.9764,26.91,1013.0,0.0
4101696,2020-02-16T05:00:00Z,7.7566,-49.964,26.91,1012.3,0.0
4101696,2020-02-16T06:00:00Z,7.737,-49.9504,26.91,1012.0,0.0
4101696,2020-02-16T07:00:00Z,7.721,-49.9366,26.91,1012.0,0.0
4101696,2020-02-16T07:59:00Z,7.707,-49.9194,26.9,1011.9,0.0
4101696,2020-02-16T09:00:00Z,7.6944,-49.9018,26.9,1012.0,0.0
4101696,2020-02-16T09:58:00Z,7.6816,-49.8812,26.89,1012.8,0.0
4101696,2020-02-16T11:00:00Z,7.6708,-49.863,26.9,1013.5,0.0
4101696,2020-02-16T12:00:00Z,7.658,-49.8476,26.91,1014.1,0.0
4101696,2020-02-16T13:00:00Z,7.6464,-49.8332,26.91,1014.3,0.0
4101696,2020-02-16T13:59:00Z,7.6342,-49.8182,26.93,1014.2,0.0
4101696,2020-02-16T15:00:00Z,7.6206,-49.8036,26.95,1013.9,0.0
4101696,2020-02-16T16:00:00Z,7.6066,-49.788,26.99,1013.3,0.0
4101696,2020-02-16T17:00:00Z,7.591,-49.7718,27.0,1012.6,0.0
4101696,2020-02-16T17:59:00Z,7.5734,-49.7562,27.02,1012.4,0.0
4101696,2020-02-16T19:00:00Z,7.5554,-49.7432,27.01,1012.3,0.0
4101696,2020-02-16T20:00:00Z,7.5366,-49.7358,27.0,1012.2,0.0
4101696,2020-02-16T21:00:00Z,7.5184,-49.7232,26.98,1012.2,0.0
4101696,2020-02-16T22:00:00Z,7.5012,-49.7074,26.96,1012.3,0.0
4101696,2020-02-16T23:00:00Z,7.4864,-49.6908,26.95,1012.7,0.0
4101696,2020-02-16T23:59:00Z,7.4706,-49.6726,26.94,1013.3,0.0
4101696,2020-02-17T01:00:00Z,7.4534,-49.6528,26.92,1013.7,0.0
4101696,2020-02-17T02:00:00Z,7.435,-49.6338,26.92,1013.5,0.0
4101696,2020-02-17T03:00:00Z,7.4192,-49.62,26.9,1013.1,0.0
4101696,2020-02-17T03:58:00Z,7.4048,-49.605,26.91,1012.9,0.0
4101696,2020-02-17T05:00:00Z,7.3918,-49.592,26.89,1012.3,0.0
4101696,2020-02-17T06:00:00Z,7.3766,-49.5768,26.89,1012.1,0.0
4101696,2020-02-17T07:00:00Z,7.3588,-49.5596,26.88,1012.0,0.0
4101696,2020-02-17T08:00:00Z,7.3408,-49.5428,26.89,1012.2,0.0
4101696,2020-02-17T09:00:00Z,7.3228,-49.527,26.88,1012.5,0.0
4101696,2020-02-17T10:00:00Z,7.305,-49.5144,26.88,1012.7,0.0
4101696,2020-02-17T10:58:00Z,7.2844,-49.4974,26.89,1013.1,0.0
4101696,2020-02-17T12:00:00Z,7.2632,-49.4808,26.9,1013.3,0.0
4101696,2020-02-17T13:00:00Z,7.2406,-49.4618,26.91,1013.6,0.0
4101696,2020-02-17T14:00:00Z,7.2192,-49.4442,26.91,1013.7,0.0
4101696,2020-02-17T15:00:00Z,7.197,-49.4262,26.94,1013.1,0.0
4101696,2020-02-17T16:00:00Z,7.1772,-49.4088,26.95,1012.5,0.0
4101696,2020-02-17T17:00:00Z,7.1576,-49.396,26.97,1012.0,0.0
4101696,2020-02-17T18:00:00Z,7.138,-49.389,26.97,1011.5,0.0
4101696,2020-02-17T19:00:00Z,7.1188,-49.378,26.97,1011.3,0.0
4101696,2020-02-17T19:59:00Z,7.0986,-49.3654,26.96,1011.7,0.0
4101696,2020-02-17T21:00:00Z,7.0794,-49.3524,26.94,1012.1,0.0
4101696,2020-02-17T22:00:00Z,7.0602,-49.3386,26.92,1012.6,0.0
4101696,2020-02-17T23:00:00Z,7.0418,-49.3234,26.92,1013.2,0.0
4101696,2020-02-17T23:59:00Z,7.0206,-49.308,26.91,1013.7,0.0
4101696,2020-02-18T01:00:00Z,7.0002,-49.2954,26.9,1014.3,0.0
4101696,2020-02-18T01:59:00Z,6.9776,-49.2804,26.89,1014.3,0.0
4101696,2020-02-18T03:00:00Z,6.9526,-49.2644,26.89,1014.0,0.0
4101696,2020-02-18T04:00:00Z,6.9278,-49.2464,26.89,1013.5,0.0
4101696,2020-02-18T05:00:00Z,6.9064,-49.2286,26.88,1012.8,0.0
4101696,2020-02-18T05:59:00Z,6.8838,-49.2124,26.88,1012.2,0.0
4101696,2020-02-18T07:00:00Z,6.861,-49.198,26.88,1012.1,0.0
4101696,2020-02-18T08:00:00Z,6.8378,-49.1836,26.88,1012.2,0.0
4101696,2020-02-18T09:00:00Z,6.8138,-49.1732,26.86,1012.3,0.0
4101696,2020-02-18T09:59:00Z,6.7902,-49.1624,26.87,1012.9,0.0
4101696,2020-02-18T11:00:00Z,6.7676,-49.1506,26.87,1013.5,0.0
4101696,2020-02-18T11:59:00Z,6.7444,-49.1376,26.87,1014.0,0.0
4101696,2020-02-18T13:00:00Z,6.7226,-49.1246,26.87,1014.5,0.0
4101696,2020-02-18T14:00:00Z,6.7016,-49.1092,26.9,1014.6,0.0
4101696,2020-02-18T15:00:00Z,6.6814,-49.0952,26.92,1014.0,0.0
4101696,2020-02-18T15:59:00Z,6.6626,-49.082,26.93,1013.0,0.0
4101696,2020-02-18T17:00:00Z,6.6434,-49.068,26.94,1012.1,0.0
4101696,2020-02-18T17:59:00Z,6.6218,-49.0522,26.95,1011.7,0.0
4101696,2020-02-18T18:59:00Z,6.6,-49.0386,26.96,1011.5,0.0
4101696,2020-02-18T20:00:00Z,6.5782,-49.0288,26.94,1011.4,0.0
4101696,2020-02-18T21:00:00Z,6.5548,-49.0192,26.93,1011.6,0.0
4101696,2020-02-18T22:00:00Z,6.5304,-49.0094,26.91,1012.1,0.0
4101696,2020-02-18T23:00:00Z,6.5054,-48.996,26.9,1012.7,0.0
4101696,2020-02-18T23:59:00Z,6.479,-48.9806,26.89,1013.2,0.0
4101696,2020-02-19T01:00:00Z,6.4548,-48.9654,26.88,1013.7,0.0
4101696,2020-02-19T02:00:00Z,6.4332,-48.9508,26.88,1013.7,0.0
4101696,2020-02-19T03:00:00Z,6.415,-48.9394,26.87,1013.4,0.0
4101696,2020-02-19T04:00:00Z,6.3968,-48.9276,26.87,1012.5,0.0
4101696,2020-02-19T05:00:00Z,6.3744,-48.9138,26.86,1011.7,0.0
4101696,2020-02-19T05:59:00Z,6.3504,-48.8992,26.86,1010.9,0.0
4101696,2020-02-19T07:00:00Z,6.3282,-48.8862,26.85,1010.6,0.0
4101696,2020-02-19T08:00:00Z,6.3046,-48.8716,26.84,1011.0,0.0
4101696,2020-02-19T09:00:00Z,6.2816,-48.8592,26.83,1011.7,0.0
4101696,2020-02-19T10:00:00Z,6.2594,-48.848,26.83,1012.0,0.0
4101696,2020-02-19T11:00:00Z,6.238,-48.8354,26.83,1012.7,0.0
4101696,2020-02-19T11:58:00Z,6.2188,-48.8232,26.84,1013.3,0.0
4101696,2020-02-19T13:00:00Z,6.2026,-48.809,26.84,1014.0,0.0
4101696,2020-02-19T14:00:00Z,6.184,-48.7912,26.86,1013.6,0.0
4101696,2020-02-19T15:00:00Z,6.1632,-48.7738,26.88,1012.9,0.0
4101696,2020-02-19T16:00:00Z,6.142,-48.7584,26.9,1011.9,0.0
4101696,2020-02-19T17:00:00Z,6.1208,-48.743,26.9,1010.9,0.0
4101696,2020-02-19T18:00:00Z,6.101,-48.7274,26.9,1010.3,0.0
4101696,2020-02-19T19:00:00Z,6.0802,-48.7116,26.91,1009.8,0.0
4101696,2020-02-19T20:00:00Z,6.0592,-48.696,26.89,1010.0,0.0
4101696,2020-02-19T20:59:00Z,6.0376,-48.6806,26.88,1010.4,0.0
4101696,2020-02-19T22:00:00Z,6.0172,-48.6668,26.87,1011.0,0.0
4101696,2020-02-19T22:59:00Z,5.9974,-48.6534,26.87,1011.8,0.0
4101696,2020-02-20T00:00:00Z,5.9804,-48.639,26.86,1012.5,0.0
4101696,2020-02-20T00:59:00Z,5.9646,-48.6204,26.86,1012.9,0.0
4101696,2020-02-20T02:00:00Z,5.949,-48.6008,26.86,1012.7,0.0
4101696,2020-02-20T02:59:00Z,5.9326,-48.581,26.85,1012.4,0.0
4101696,2020-02-20T04:00:00Z,5.915,-48.5634,26.85,1011.7,0.0
4101696,2020-02-20T05:00:00Z,5.8962,-48.5464,26.85,1010.8,0.0
4101696,2020-02-20T05:58:00Z,5.8778,-48.5302,26.83,1010.1,0.0
4101696,2020-02-20T07:00:00Z,5.8616,-48.5152,26.83,1009.6,0.0
4101696,2020-02-20T08:00:00Z,5.8442,-48.5,26.82,1009.7,0.0
4101696,2020-02-20T09:00:00Z,5.8282,-48.485,26.82,1010.2,0.0
4101696,2020-02-20T09:59:00Z,5.811,-48.4692,26.82,1010.5,0.0
4101696,2020-02-20T11:00:00Z,5.7942,-48.4526,26.82,1011.2,0.0
4101696,2020-02-20T12:00:00Z,5.7786,-48.434,26.84,1011.8,0.0
4101696,2020-02-20T13:00:00Z,5.7636,-48.4136,26.85,1012.6,0.0
4101696,2020-02-20T13:59:00Z,5.7498,-48.3894,26.88,1012.4,0.0
4101696,2020-02-20T15:00:00Z,5.738,-48.3658,26.9,1011.8,0.0
4101696,2020-02-20T15:59:00Z,5.7252,-48.3438,26.93,1011.0,0.0
4101696,2020-02-20T17:00:00Z,5.7116,-48.3258,26.95,1010.0,0.0
4101696,2020-02-20T17:59:00Z,5.6958,-48.3052,26.97,1009.0,0.0
4101696,2020-02-20T19:00:00Z,5.6794,-48.2872,26.97,1008.6,0.0
4101696,2020-02-20T20:00:00Z,5.6628,-48.2676,26.94,1009.0,0.0
4101696,2020-02-20T21:00:00Z,5.6458,-48.2468,26.93,1009.6,0.0
4101696,2020-02-20T21:59:00Z,5.6314,-48.2264,26.93,1010.3,0.0
4101696,2020-02-20T22:59:00Z,5.6194,-48.2074,26.93,1011.0,0.0
4101696,2020-02-21T00:00:00Z,5.6088,-48.1906,26.93,1011.8,0.0
4101696,2020-02-21T01:00:00Z,5.6012,-48.171,26.93,1012.2,0.0
4101696,2020-02-21T01:59:00Z,5.5946,-48.1438,26.94,1012.5,0.0